PROBA-1 1 26958U 01049B 26162.82648840 .00002255 00000+0 14805-3 0 9995 2 26958 97.9606 171.1711 0055831 139.8330 220.7044 15.07474528342817 CUTE-1 (CO-55) 1 27844U 03031E 26162.55782411 .00000255 00000+0 12921-3 0 9991 2 27844 98.6735 171.1873 0009139 194.6488 165.4428 14.24332340190876 CUBESAT XI-IV (CO-57) 1 27848U 03031J 26162.54345883 .00000221 00000+0 11637-3 0 9998 2 27848 98.6768 170.8906 0008681 214.5229 145.5386 14.23617902190573 APRIZESAT 4 1 35684U 09041D 26162.79507678 .00000558 00000+0 73264-4 0 9999 2 35684 98.1411 238.0079 0042776 340.8204 19.1397 14.83872183910564 APRIZESAT 3 1 35686U 09041F 26162.68206601 .00001262 00000+0 11338-3 0 9997 2 35686 98.2053 315.6426 0062751 85.4433 275.3951 14.96224476915554 PROBA-2 1 36037U 09059B 26162.46332346 .00000154 00000+0 46367-4 0 9999 2 36037 98.2450 345.8955 0012124 301.6481 58.3533 14.54859902880696 APRIZESAT 5 1 37792U 11044E 26162.80518888 .00000966 00000+0 12916-3 0 9993 2 37792 98.2455 95.6931 0052768 21.4986 338.8425 14.81064166797995 APRIZESAT 6 1 37793U 11044F 26162.72565476 .00000610 00000+0 93238-4 0 9993 2 37793 98.2370 73.1137 0044442 102.9794 311.9870 14.76907722796345 PROBA-V 1 39159U 13021A 26162.49637247 .00000065 00000+0 46357-4 0 9992 2 39159 98.3582 141.3840 0004918 136.9652 223.1913 14.23595841680309 APRIZESAT 7 1 39416U 13066A 26162.85419508 .00000725 00000+0 77272-4 0 9998 2 39416 97.7708 116.1509 0034607 227.3675 132.4624 14.91552666680436 APRIZESAT 8 1 39425U 13066K 26162.08792428 .00000874 00000+0 10067-3 0 9991 2 39425 97.8220 109.6410 0044691 307.2502 52.4642 14.87640786678765 BUGSAT-1 (TITA) 1 40014U 14033E 26162.82034637 .00004851 00000+0 25759-3 0 9998 2 40014 98.0420 255.0556 0027590 196.7304 163.3020 15.15525042655028 SAUDISAT 4 1 40016U 14033G 26162.37032581 .00000584 00000+0 83536-4 0 9993 2 40016 97.7575 308.7066 0046243 92.3247 268.3261 14.79536639645218 APRIZESAT 9 1 40018U 14033J 26162.64189690 .00000578 00000+0 92365-4 0 9992 2 40018 97.9053 295.9762 0065307 217.1673 142.5005 14.74207063642740 APRIZESAT 10 1 40019U 14033K 26162.34432353 .00000338 00000+0 61137-4 0 9994 2 40019 97.9642 289.4343 0077517 292.8263 66.4770 14.70877300641395 TECHDEMOSAT-1 (TDS-1) 1 40076U 14037H 26162.53799914 .00007275 00000+0 41385-3 0 9990 2 40076 98.3806 154.1908 0004654 292.1078 67.9656 15.13208718647371 TECHNOSAT 1 42829U 17042E 26162.39817513 .00003079 00000+0 22080-3 0 9996 2 42829 97.4263 320.2771 0018777 112.5016 247.8201 15.04918472485839 FLYING LAPTOP 1 42831U 17042G 26162.85285105 .00002843 00000+0 22570-3 0 9998 2 42831 97.4661 318.5922 0019332 139.0275 221.2406 15.01111056485654 HAWK-A 1 43765U 18099H 26162.70372812 .00005796 00000+0 23457-3 0 9999 2 43765 97.3921 215.0110 0033299 306.1976 53.6183 15.24578222412265 HAWK-B 1 43794U 18099AN 26162.71874161 .00005088 00000+0 21816-3 0 9997 2 43794 97.3970 214.4522 0030853 325.0216 34.8993 15.22765563412209 HAWK-C 1 43799U 18099AT 26162.69265791 .00007162 00000+0 25896-3 0 9999 2 43799 97.3897 215.8853 0038937 306.0553 53.7081 15.28026567413072 SALSAT 1 46495U 20068K 26162.58556220 .00006923 00000+0 24314-3 0 9990 2 46495 97.8849 165.3093 0008526 331.4069 28.6701 15.29719030314503 HAWK-2C 1 47502U 21006CT 26162.67508385 .00005997 00000+0 18116-3 0 9995 2 47502 97.2284 207.0949 0006042 205.9188 154.1754 15.34596780298653 HAWK-2A 1 47505U 21006CW 26162.67763035 .00006006 00000+0 18136-3 0 9997 2 47505 97.2327 207.7720 0005475 209.3865 150.7071 15.34611747298652 HAWK-2B 1 47508U 21006CZ 26162.67346684 .00006753 00000+0 20307-3 0 9999 2 47508 97.2196 206.1085 0006036 207.6038 152.4886 15.34691149298650 HAWK-3B 1 48931U 21059BE 26162.52180965 .00043874 00000+0 37921-3 0 9995 2 48931 97.6668 358.6970 0003629 358.9023 1.2230 15.69091856276965 HAWK-3C 1 48948U 21059BX 26162.52149468 .00042957 00000+0 37138-3 0 9997 2 48948 97.6789 4.3728 0003964 359.6641 0.4616 15.69087859276966 HAWK-3A 1 48957U 21059CG 26162.52139128 .00044565 00000+0 38507-3 0 9997 2 48957 97.6731 1.5819 0004076 1.3563 358.7708 15.69093450276967 HAWK-5C 1 52754U 22057Y 26162.43223811 .00016456 00000+0 28297-3 0 9992 2 52754 97.6585 321.7300 0005305 99.9710 260.2140 15.51188382225454 HAWK-5B 1 52756U 22057AA 26162.43208985 .00016383 00000+0 28169-3 0 9996 2 52756 97.6591 320.0784 0005962 93.0818 267.1115 15.51188759225450 HAWK-5A 1 52757U 22057AB 26162.43187199 .00016429 00000+0 28251-3 0 9993 2 52757 97.6591 320.9098 0005885 96.1770 264.0152 15.51184795225456 HAWK-6B 1 55324U 23011A 26161.95324857 .00004111 00000+0 17995-3 0 9995 2 55324 40.4991 28.4311 0003501 327.0265 33.0326 15.22872392186891 HAWK-6C 1 55326U 23011C 26160.37868959 .00004206 00000+0 18395-3 0 9998 2 55326 40.4982 34.4522 0004314 308.3612 51.6810 15.22867772186660 HAWK-6A 1 55327U 23011D 26162.34610284 .00004031 00000+0 17656-3 0 9999 2 55327 40.4992 24.6026 0003768 316.5498 43.5014 15.22877524186962 HAWK-7A 1 56191U 23054P 26162.67255767 .00002314 00000+0 89198-4 0 9996 2 56191 97.2705 50.1496 0004589 66.6093 293.5629 15.27299694176188 HAWK-7B 1 56193U 23054R 26162.67246730 .00005280 00000+0 20009-3 0 9998 2 56193 97.2743 48.4123 0003953 79.1606 281.0078 15.27306798176186 HAWK-7C 1 56200U 23054Y 26162.67236153 .00005192 00000+0 19680-3 0 9990 2 56200 97.2718 49.1826 0003981 71.3490 288.8182 15.27303353176186